Volver al catálogo

STARLINK-37363

ActivoComunicacionesVLEO
NORAD 69158·PAYLOAD·🇺🇸 United States

Lanzado May 21, 2026 desde Cape Canaveral Space Force Station

Loading…

Próximos Pases (próximas 24 horas)

TLE

ActualizadoSource: CelesTrak SupGP

Época: Sep 14, 2026, 21:17 UTC

1 69158C 26111L   26257.88729167 -.00035119  00000+0 -10378-2 0  2578
2 69158  53.1579  92.0689 0001183  83.7216 341.4768 15.34400966    17

Sigue STARLINK-37363 en tiempo real con AllMySat

Download on the App Store